Year,Month,Day,Hour,Minute,Value (Times are PST for temperature in C)
2016,08,19,00,00,20.40
2016,08,19,00,01,20.40
2016,08,19,00,02,20.40
2016,08,19,00,03,20.40
2016,08,19,00,04,20.40
2016,08,19,00,05,20.40
2016,08,19,00,06,20.40
2016,08,19,00,07,20.30
2016,08,19,00,08,20.30
2016,08,19,00,09,20.30
2016,08,19,00,10,20.20
2016,08,19,00,11,20.20
2016,08,19,00,12,20.20
2016,08,19,00,13,20.20
2016,08,19,00,14,20.20
2016,08,19,00,15,20.10
2016,08,19,00,16,20.10
2016,08,19,00,17,20.10
2016,08,19,00,18,20.10
2016,08,19,00,19,20.10
2016,08,19,00,20,20.10
2016,08,19,00,21,20.10
2016,08,19,00,22,20.10
2016,08,19,00,23,20.10
2016,08,19,00,24,20.10
2016,08,19,00,25,20.10
2016,08,19,00,26,20.00
2016,08,19,00,27,20.00
2016,08,19,00,28,20.00
2016,08,19,00,29,19.90
2016,08,19,00,30,19.90
2016,08,19,00,31,19.90
2016,08,19,00,32,19.90
2016,08,19,00,33,19.90
2016,08,19,00,34,19.90
2016,08,19,00,35,19.90
2016,08,19,00,36,19.80
2016,08,19,00,37,19.80
2016,08,19,00,38,19.80
2016,08,19,00,39,19.80
2016,08,19,00,40,19.80
2016,08,19,00,41,19.70
2016,08,19,00,42,19.70
2016,08,19,00,43,19.70
2016,08,19,00,44,19.60
2016,08,19,00,45,19.60
2016,08,19,00,46,19.50
2016,08,19,00,47,19.50
2016,08,19,00,48,19.40
2016,08,19,00,49,19.40
2016,08,19,00,50,19.30
2016,08,19,00,51,19.30
2016,08,19,00,52,19.30
2016,08,19,00,53,19.30
2016,08,19,00,54,19.20
2016,08,19,00,55,19.20
2016,08,19,00,56,19.20
2016,08,19,00,57,19.20
2016,08,19,00,58,19.10
2016,08,19,00,59,19.10
2016,08,19,01,00,19.10
2016,08,19,01,01,19.00
2016,08,19,01,02,19.00
2016,08,19,01,03,19.00
2016,08,19,01,04,19.00
2016,08,19,01,05,18.90
2016,08,19,01,06,18.90
2016,08,19,01,07,18.90
2016,08,19,01,08,18.90
2016,08,19,01,09,18.90
2016,08,19,01,10,18.90
2016,08,19,01,11,18.90
2016,08,19,01,12,18.90
2016,08,19,01,13,18.80
2016,08,19,01,14,18.90
2016,08,19,01,15,18.90
2016,08,19,01,16,18.90
2016,08,19,01,17,18.90
2016,08,19,01,18,18.80
2016,08,19,01,19,18.80
2016,08,19,01,20,18.80
2016,08,19,01,21,18.80
2016,08,19,01,22,18.80
2016,08,19,01,23,18.80
2016,08,19,01,24,18.80
2016,08,19,01,25,18.80
2016,08,19,01,26,18.80
2016,08,19,01,27,18.80
2016,08,19,01,28,18.80
2016,08,19,01,29,18.80
2016,08,19,01,30,18.80
2016,08,19,01,31,18.80
2016,08,19,01,32,18.70
2016,08,19,01,33,18.70
2016,08,19,01,34,18.70
2016,08,19,01,35,18.70
2016,08,19,01,36,18.70
2016,08,19,01,37,18.60
2016,08,19,01,38,18.60
2016,08,19,01,39,18.60
2016,08,19,01,40,18.60
2016,08,19,01,41,18.60
2016,08,19,01,42,18.60
2016,08,19,01,43,18.60
2016,08,19,01,44,18.50
2016,08,19,01,45,18.50
2016,08,19,01,46,18.50
2016,08,19,01,47,18.50
2016,08,19,01,48,18.50
2016,08,19,01,49,18.40
2016,08,19,01,50,18.40
2016,08,19,01,51,18.40
2016,08,19,01,52,18.40
2016,08,19,01,53,18.40
2016,08,19,01,54,18.30
2016,08,19,01,55,18.30
2016,08,19,01,56,18.30
2016,08,19,01,57,18.20
2016,08,19,01,58,18.20
2016,08,19,01,59,18.20
2016,08,19,02,00,18.10
2016,08,19,02,01,18.10
2016,08,19,02,02,18.10
2016,08,19,02,03,18.00
2016,08,19,02,04,18.00
2016,08,19,02,05,17.90
2016,08,19,02,06,17.90
2016,08,19,02,07,17.90
2016,08,19,02,08,17.80
2016,08,19,02,09,17.80
2016,08,19,02,10,17.80
2016,08,19,02,11,17.70
2016,08,19,02,12,17.70
2016,08,19,02,13,17.70
2016,08,19,02,14,17.60
2016,08,19,02,15,17.60
2016,08,19,02,16,17.60
2016,08,19,02,17,17.60
2016,08,19,02,18,17.50
2016,08,19,02,19,17.50
2016,08,19,02,20,17.40
2016,08,19,02,21,17.40
2016,08,19,02,22,17.40
2016,08,19,02,23,17.40
2016,08,19,02,24,17.40
2016,08,19,02,25,17.40
2016,08,19,02,26,17.40
2016,08,19,02,27,17.40
2016,08,19,02,28,17.30
2016,08,19,02,29,17.30
2016,08,19,02,30,17.30
2016,08,19,02,31,17.30
2016,08,19,02,32,17.30
2016,08,19,02,33,17.30
2016,08,19,02,34,17.30
2016,08,19,02,35,17.30
2016,08,19,02,36,17.30
2016,08,19,02,37,17.30
2016,08,19,02,38,17.30
2016,08,19,02,39,17.30
2016,08,19,02,40,17.30
2016,08,19,02,41,17.30
2016,08,19,02,42,17.30
2016,08,19,02,43,17.30
2016,08,19,02,44,17.30
2016,08,19,02,45,17.30
2016,08,19,02,46,17.30
2016,08,19,02,47,17.30
2016,08,19,02,48,17.30
2016,08,19,02,49,17.30
2016,08,19,02,50,17.30
2016,08,19,02,51,17.30
2016,08,19,02,52,17.30
2016,08,19,02,53,17.30
2016,08,19,02,54,17.30
2016,08,19,02,55,17.30
2016,08,19,02,56,17.20
2016,08,19,02,57,17.20
2016,08,19,02,58,17.20
2016,08,19,02,59,17.20
2016,08,19,03,00,17.10
2016,08,19,03,01,17.10
2016,08,19,03,02,17.10
2016,08,19,03,03,17.10
2016,08,19,03,04,17.00
2016,08,19,03,05,17.00
2016,08,19,03,06,16.90
2016,08,19,03,07,16.90
2016,08,19,03,08,16.90
2016,08,19,03,09,16.90
2016,08,19,03,10,16.80
2016,08,19,03,11,16.80
2016,08,19,03,12,16.80
2016,08,19,03,13,16.80
2016,08,19,03,14,16.80
2016,08,19,03,15,16.80
2016,08,19,03,16,16.80
2016,08,19,03,17,16.70
2016,08,19,03,18,16.70
2016,08,19,03,19,16.70
2016,08,19,03,20,16.70
2016,08,19,03,21,16.60
2016,08,19,03,22,16.60
2016,08,19,03,23,16.60
2016,08,19,03,24,16.50
2016,08,19,03,25,16.50
2016,08,19,03,26,16.50
2016,08,19,03,27,16.50
2016,08,19,03,28,16.50
2016,08,19,03,29,16.50
2016,08,19,03,30,16.50
2016,08,19,03,31,16.50
2016,08,19,03,32,16.50
2016,08,19,03,33,16.50
2016,08,19,03,34,16.50
2016,08,19,03,35,16.50
2016,08,19,03,36,16.50
2016,08,19,03,37,16.60
2016,08,19,03,38,16.50
2016,08,19,03,39,16.50
2016,08,19,03,40,16.50
2016,08,19,03,41,16.50
2016,08,19,03,42,16.50
2016,08,19,03,43,16.50
2016,08,19,03,44,16.40
2016,08,19,03,45,16.40
2016,08,19,03,46,16.40
2016,08,19,03,47,16.40
2016,08,19,03,48,16.30
2016,08,19,03,49,16.30
2016,08,19,03,50,16.30
2016,08,19,03,51,16.30
2016,08,19,03,52,16.20
2016,08,19,03,53,16.20
2016,08,19,03,54,16.20
2016,08,19,03,55,16.20
2016,08,19,03,56,16.10
2016,08,19,03,57,16.10
2016,08,19,03,58,16.10
2016,08,19,03,59,16.00
2016,08,19,04,00,16.00
2016,08,19,04,01,15.90
2016,08,19,04,02,15.90
2016,08,19,04,03,15.90
2016,08,19,04,04,15.80
2016,08,19,04,05,15.80
2016,08,19,04,06,15.80
2016,08,19,04,07,15.80
2016,08,19,04,08,15.90
2016,08,19,04,09,15.90
2016,08,19,04,10,15.90
2016,08,19,04,11,15.90
2016,08,19,04,12,15.90
2016,08,19,04,13,15.90
2016,08,19,04,14,15.90
2016,08,19,04,15,15.90
2016,08,19,04,16,16.00
2016,08,19,04,17,16.00
2016,08,19,04,18,16.00
2016,08,19,04,19,16.00
2016,08,19,04,20,16.10
2016,08,19,04,21,16.10
2016,08,19,04,22,16.10
2016,08,19,04,23,16.10
2016,08,19,04,24,16.10
2016,08,19,04,25,16.10
2016,08,19,04,26,16.10
2016,08,19,04,27,16.10
2016,08,19,04,28,16.10
2016,08,19,04,29,16.10
2016,08,19,04,30,16.10
2016,08,19,04,31,16.10
2016,08,19,04,32,16.10
2016,08,19,04,33,16.10
2016,08,19,04,34,16.10
2016,08,19,04,35,16.10
2016,08,19,04,36,16.10
2016,08,19,04,37,16.10
2016,08,19,04,38,16.10
2016,08,19,04,39,16.10
2016,08,19,04,40,16.00
2016,08,19,04,41,16.00
2016,08,19,04,42,16.00
2016,08,19,04,43,16.00
2016,08,19,04,44,15.90
2016,08,19,04,45,15.90
2016,08,19,04,46,15.90
2016,08,19,04,47,15.90
2016,08,19,04,48,15.80
2016,08,19,04,49,15.80
2016,08,19,04,50,15.80
2016,08,19,04,51,15.80
2016,08,19,04,52,15.70
2016,08,19,04,53,15.70
2016,08,19,04,54,15.70
2016,08,19,04,55,15.70
2016,08,19,04,56,15.60
2016,08,19,04,57,15.60
2016,08,19,04,58,15.60
2016,08,19,04,59,15.60
2016,08,19,05,00,15.60
2016,08,19,05,01,15.60
2016,08,19,05,02,15.50
2016,08,19,05,03,15.50
2016,08,19,05,04,15.50
2016,08,19,05,05,15.40
2016,08,19,05,06,15.40
2016,08,19,05,07,15.40
2016,08,19,05,08,15.40
2016,08,19,05,09,15.40
2016,08,19,05,10,15.40
2016,08,19,05,11,15.40
2016,08,19,05,12,15.30
2016,08,19,05,13,15.30
2016,08,19,05,14,15.30
2016,08,19,05,15,15.30
2016,08,19,05,16,15.30
2016,08,19,05,17,15.30
2016,08,19,05,18,15.30
2016,08,19,05,19,15.20
2016,08,19,05,20,15.20
2016,08,19,05,21,15.20
2016,08,19,05,22,15.20
2016,08,19,05,23,15.20
2016,08,19,05,24,15.20
2016,08,19,05,25,15.20
2016,08,19,05,26,15.20
2016,08,19,05,27,15.20
2016,08,19,05,28,15.20
2016,08,19,05,29,15.20
2016,08,19,05,30,15.20
2016,08,19,05,31,15.20
2016,08,19,05,32,15.20
2016,08,19,05,33,15.20
2016,08,19,05,34,15.20
2016,08,19,05,35,15.20
2016,08,19,05,36,15.20
2016,08,19,05,37,15.20
2016,08,19,05,38,15.20
2016,08,19,05,39,15.20
2016,08,19,05,40,15.20
2016,08,19,05,41,15.20
2016,08,19,05,42,15.20
2016,08,19,05,43,15.20
2016,08,19,05,44,15.20
2016,08,19,05,45,15.20
2016,08,19,05,46,15.20
2016,08,19,05,47,15.20
2016,08,19,05,48,15.10
2016,08,19,05,49,15.20
2016,08,19,05,50,15.20
2016,08,19,05,51,15.20
2016,08,19,05,52,15.20
2016,08,19,05,53,15.10
2016,08,19,05,54,15.00
2016,08,19,05,55,15.00
2016,08,19,05,56,15.00
2016,08,19,05,57,14.90
2016,08,19,05,58,14.90
2016,08,19,05,59,14.90
2016,08,19,06,00,14.90
2016,08,19,06,01,14.90
2016,08,19,06,02,14.80
2016,08,19,06,03,14.80
2016,08,19,06,04,14.80
2016,08,19,06,05,14.80
2016,08,19,06,06,14.80
2016,08,19,06,07,14.80
2016,08,19,06,08,14.80
2016,08,19,06,09,14.70
2016,08,19,06,10,14.70
2016,08,19,06,11,14.70
2016,08,19,06,12,14.70
2016,08,19,06,13,14.70
2016,08,19,06,14,14.70
2016,08,19,06,15,14.70
2016,08,19,06,16,14.60
2016,08,19,06,17,14.60
2016,08,19,06,18,14.60
2016,08,19,06,19,14.60
2016,08,19,06,20,14.60
2016,08,19,06,21,14.60
2016,08,19,06,22,14.50
2016,08,19,06,23,14.50
2016,08,19,06,24,14.50
2016,08,19,06,25,14.50
2016,08,19,06,26,14.50
2016,08,19,06,27,14.50
2016,08,19,06,28,14.50
2016,08,19,06,29,14.50
2016,08,19,06,30,14.50
2016,08,19,06,31,14.40
2016,08,19,06,32,14.40
2016,08,19,06,33,14.40
2016,08,19,06,34,14.40
2016,08,19,06,35,14.40
2016,08,19,06,36,14.30
2016,08,19,06,37,14.30
2016,08,19,06,38,14.30
2016,08,19,06,39,14.30
2016,08,19,06,40,14.30
2016,08,19,06,41,14.30
2016,08,19,06,42,14.30
2016,08,19,06,43,14.20
2016,08,19,06,44,14.20
2016,08,19,06,45,14.20
2016,08,19,06,46,14.20
2016,08,19,06,47,14.20
2016,08,19,06,48,14.20
2016,08,19,06,49,14.20
2016,08,19,06,50,14.20
2016,08,19,06,51,14.20
2016,08,19,06,52,14.20
2016,08,19,06,53,14.20
2016,08,19,06,54,14.20
2016,08,19,06,55,14.20
2016,08,19,06,56,14.20
2016,08,19,06,57,14.20
2016,08,19,06,58,14.20
2016,08,19,06,59,14.20
2016,08,19,07,00,14.20
2016,08,19,07,01,14.20
2016,08,19,07,02,14.20
2016,08,19,07,03,14.30
2016,08,19,07,04,14.30
2016,08,19,07,05,14.30
2016,08,19,07,06,14.30
2016,08,19,07,07,14.30
2016,08,19,07,08,14.40
2016,08,19,07,09,14.40
2016,08,19,07,10,14.50
2016,08,19,07,11,14.60
2016,08,19,07,12,14.60
2016,08,19,07,13,14.60
2016,08,19,07,14,14.70
2016,08,19,07,15,14.70
2016,08,19,07,16,14.70
2016,08,19,07,17,14.80
2016,08,19,07,18,14.80
2016,08,19,07,19,14.80
2016,08,19,07,20,14.80
2016,08,19,07,21,14.90
2016,08,19,07,22,14.90
2016,08,19,07,23,14.90
2016,08,19,07,24,15.00
2016,08,19,07,25,15.10
2016,08,19,07,26,15.10
2016,08,19,07,27,15.20
2016,08,19,07,28,15.20
2016,08,19,07,29,15.30
2016,08,19,07,30,15.40
2016,08,19,07,31,15.50
2016,08,19,07,32,15.60
2016,08,19,07,33,15.70
2016,08,19,07,34,15.80
2016,08,19,07,35,15.90
2016,08,19,07,36,16.00
2016,08,19,07,37,16.10
2016,08,19,07,38,16.20
2016,08,19,07,39,16.30
2016,08,19,07,40,16.30
2016,08,19,07,41,16.40
2016,08,19,07,42,16.40
2016,08,19,07,43,16.50
2016,08,19,07,44,16.60
2016,08,19,07,45,16.60
2016,08,19,07,46,16.60
2016,08,19,07,47,16.60
2016,08,19,07,48,16.70
2016,08,19,07,49,16.70
2016,08,19,07,50,16.70
2016,08,19,07,51,16.80
2016,08,19,07,52,16.80
2016,08,19,07,53,16.90
2016,08,19,07,54,17.00
2016,08,19,07,55,17.10
2016,08,19,07,56,17.20
2016,08,19,07,57,17.30
2016,08,19,07,58,17.30
2016,08,19,07,59,17.40
2016,08,19,08,00,17.50
2016,08,19,08,01,17.60
2016,08,19,08,02,17.60
2016,08,19,08,03,17.60
2016,08,19,08,04,17.60
2016,08,19,08,05,17.70
2016,08,19,08,06,17.70
2016,08,19,08,07,17.70
2016,08,19,08,08,17.80
2016,08,19,08,09,17.80
2016,08,19,08,10,17.90
2016,08,19,08,11,18.00
2016,08,19,08,12,18.10
2016,08,19,08,13,18.20
2016,08,19,08,14,18.20
2016,08,19,08,15,18.20
2016,08,19,08,16,18.30
2016,08,19,08,17,18.30
2016,08,19,08,18,18.40
2016,08,19,08,19,18.40
2016,08,19,08,20,18.50
2016,08,19,08,21,18.60
2016,08,19,08,22,18.70
2016,08,19,08,23,18.80
2016,08,19,08,24,18.90
2016,08,19,08,25,19.00
2016,08,19,08,26,19.20
2016,08,19,08,27,19.20
2016,08,19,08,28,19.30
2016,08,19,08,29,19.40
2016,08,19,08,30,19.50
2016,08,19,08,31,19.50
2016,08,19,08,32,19.60
2016,08,19,08,33,19.60
2016,08,19,08,34,19.70
2016,08,19,08,35,19.80
2016,08,19,08,36,19.90
2016,08,19,08,37,20.00
2016,08,19,08,38,20.10
2016,08,19,08,39,20.30
2016,08,19,08,40,20.50
2016,08,19,08,41,20.60
2016,08,19,08,42,20.80
2016,08,19,08,43,20.90
2016,08,19,08,44,21.00
2016,08,19,08,45,21.10
2016,08,19,08,46,21.20
2016,08,19,08,47,21.30
2016,08,19,08,48,21.30
2016,08,19,08,49,21.40
2016,08,19,08,50,21.50
2016,08,19,08,51,21.60
2016,08,19,08,52,21.60
2016,08,19,08,53,21.70
2016,08,19,08,54,21.80
2016,08,19,08,55,21.90
2016,08,19,08,56,22.00
2016,08,19,08,57,22.10
2016,08,19,08,58,22.10
2016,08,19,08,59,22.10
2016,08,19,09,00,22.20
2016,08,19,09,01,22.20
2016,08,19,09,02,22.20
2016,08,19,09,03,22.30
2016,08,19,09,04,22.40
2016,08,19,09,05,22.40
2016,08,19,09,06,22.50
2016,08,19,09,07,22.50
2016,08,19,09,08,22.60
2016,08,19,09,09,22.60
2016,08,19,09,10,22.60
2016,08,19,09,11,22.70
2016,08,19,09,12,22.80
2016,08,19,09,13,22.80
2016,08,19,09,14,22.80
2016,08,19,09,15,22.80
2016,08,19,09,16,22.80
2016,08,19,09,17,22.90
2016,08,19,09,18,23.00
2016,08,19,09,19,23.10
2016,08,19,09,20,23.10
2016,08,19,09,21,23.20
2016,08,19,09,22,23.20
2016,08,19,09,23,23.20
2016,08,19,09,24,23.20
2016,08,19,09,25,23.20
2016,08,19,09,26,23.20
2016,08,19,09,27,23.30
2016,08,19,09,28,23.30
2016,08,19,09,29,23.40
2016,08,19,09,30,23.40
2016,08,19,09,31,23.50
2016,08,19,09,32,23.60
2016,08,19,09,33,23.70
2016,08,19,09,34,23.70
2016,08,19,09,35,23.80
2016,08,19,09,36,23.90
2016,08,19,09,37,23.90
2016,08,19,09,38,24.00
2016,08,19,09,39,24.10
2016,08,19,09,40,24.10
2016,08,19,09,41,24.20
2016,08,19,09,42,24.30
2016,08,19,09,43,24.30
2016,08,19,09,44,24.40
2016,08,19,09,45,24.40
2016,08,19,09,46,24.50
2016,08,19,09,47,24.60
2016,08,19,09,48,24.60
2016,08,19,09,49,24.60
2016,08,19,09,50,24.60
2016,08,19,09,51,24.60
2016,08,19,09,52,24.70
2016,08,19,09,53,24.80
2016,08,19,09,54,24.80
2016,08,19,09,55,24.80
2016,08,19,09,56,24.90
2016,08,19,09,57,24.90
2016,08,19,09,58,24.90
2016,08,19,09,59,25.00
2016,08,19,10,00,25.00
2016,08,19,10,01,25.00
2016,08,19,10,02,25.00
2016,08,19,10,03,25.10
2016,08,19,10,04,25.20
2016,08,19,10,05,25.30
2016,08,19,10,06,25.40
2016,08,19,10,07,25.40
2016,08,19,10,08,25.50
2016,08,19,10,09,25.50
2016,08,19,10,10,25.60
2016,08,19,10,11,25.80
2016,08,19,10,12,25.90
2016,08,19,10,13,26.00
2016,08,19,10,14,26.10
2016,08,19,10,15,26.20
2016,08,19,10,16,26.30
2016,08,19,10,17,26.40
2016,08,19,10,18,26.40
2016,08,19,10,19,26.50
2016,08,19,10,20,26.60
2016,08,19,10,21,26.70
2016,08,19,10,22,26.80
2016,08,19,10,23,26.80
2016,08,19,10,24,26.90
2016,08,19,10,25,27.00
2016,08,19,10,26,27.10
2016,08,19,10,27,27.10
2016,08,19,10,28,27.20
2016,08,19,10,29,27.30
2016,08,19,10,30,27.40
2016,08,19,10,31,27.40
2016,08,19,10,32,27.50
2016,08,19,10,33,27.60
2016,08,19,10,34,27.60
2016,08,19,10,35,27.70
2016,08,19,10,36,27.70
2016,08,19,10,37,27.70
2016,08,19,10,38,27.80
2016,08,19,10,39,27.80
2016,08,19,10,40,27.70
2016,08,19,10,41,27.70
2016,08,19,10,42,27.80
2016,08,19,10,43,27.70
2016,08,19,10,44,27.70
2016,08,19,10,45,27.80
2016,08,19,10,46,27.80
2016,08,19,10,47,27.80
2016,08,19,10,48,27.80
2016,08,19,10,49,27.80
2016,08,19,10,50,27.80
2016,08,19,10,51,27.80
2016,08,19,10,52,27.90
2016,08,19,10,53,27.90
2016,08,19,10,54,28.00
2016,08,19,10,55,28.10
2016,08,19,10,56,28.10
2016,08,19,10,57,28.10
2016,08,19,10,58,28.20
2016,08,19,10,59,28.20
2016,08,19,11,00,28.20
2016,08,19,11,01,28.20
2016,08,19,11,02,28.20
2016,08,19,11,03,28.20
2016,08,19,11,04,28.30
2016,08,19,11,05,28.30
2016,08,19,11,06,28.40
2016,08,19,11,07,28.50
2016,08,19,11,08,28.50
2016,08,19,11,09,28.70
2016,08,19,11,10,28.70
2016,08,19,11,11,28.90
2016,08,19,11,12,29.00
2016,08,19,11,13,29.20
2016,08,19,11,14,29.30
2016,08,19,11,15,29.40
2016,08,19,11,16,29.50
2016,08,19,11,17,29.60
2016,08,19,11,18,29.80
2016,08,19,11,19,29.90
2016,08,19,11,20,30.00
2016,08,19,11,21,30.10
2016,08,19,11,22,30.10
2016,08,19,11,23,30.10
2016,08,19,11,24,30.10
2016,08,19,11,25,30.10
2016,08,19,11,26,30.10
2016,08,19,11,27,30.20
2016,08,19,11,28,30.20
2016,08,19,11,29,30.30
2016,08,19,11,30,30.20
2016,08,19,11,31,30.10
2016,08,19,11,32,30.10
2016,08,19,11,33,30.00
2016,08,19,11,34,30.00
2016,08,19,11,35,29.90
2016,08,19,11,36,29.90
2016,08,19,11,37,30.00
2016,08,19,11,38,30.00
2016,08,19,11,39,30.00
2016,08,19,11,40,30.00
2016,08,19,11,41,30.10
2016,08,19,11,42,30.10
2016,08,19,11,43,30.10
2016,08,19,11,44,30.10
2016,08,19,11,45,30.20
2016,08,19,11,46,30.20
2016,08,19,11,47,30.30
2016,08,19,11,48,30.30
2016,08,19,11,49,30.30
2016,08,19,11,50,30.40
2016,08,19,11,51,30.60
2016,08,19,11,52,30.70
2016,08,19,11,53,30.80
2016,08,19,11,54,30.90
2016,08,19,11,55,31.00
2016,08,19,11,56,31.10
2016,08,19,11,57,31.10
2016,08,19,11,58,31.10
2016,08,19,11,59,31.20
2016,08,19,12,00,31.30
2016,08,19,12,01,31.30
2016,08,19,12,02,31.40
2016,08,19,12,03,31.60
2016,08,19,12,04,31.70
2016,08,19,12,05,31.90
2016,08,19,12,06,32.00
2016,08,19,12,07,32.10
2016,08,19,12,08,32.20
2016,08,19,12,09,32.20
2016,08,19,12,10,32.30
2016,08,19,12,11,32.30
2016,08,19,12,12,32.30
2016,08,19,12,13,32.30
2016,08,19,12,14,32.30
2016,08,19,12,15,32.40
2016,08,19,12,16,32.40
2016,08,19,12,17,32.40
2016,08,19,12,18,32.40
2016,08,19,12,19,32.40
2016,08,19,12,20,32.40
2016,08,19,12,21,32.40
2016,08,19,12,22,32.50
2016,08,19,12,23,32.50
2016,08,19,12,24,32.60
2016,08,19,12,25,32.60
2016,08,19,12,26,32.60
2016,08,19,12,27,32.60
2016,08,19,12,28,32.70
2016,08,19,12,29,32.70
2016,08,19,12,30,32.80
2016,08,19,12,31,32.80
2016,08,19,12,32,32.90
2016,08,19,12,33,32.90
2016,08,19,12,34,33.00
2016,08,19,12,35,33.00
2016,08,19,12,36,33.00
2016,08,19,12,37,33.00
2016,08,19,12,38,33.00
2016,08,19,12,39,33.00
2016,08,19,12,40,33.10
2016,08,19,12,41,33.10
2016,08,19,12,42,33.20
2016,08,19,12,43,33.10
2016,08,19,12,44,33.10
2016,08,19,12,45,33.10
2016,08,19,12,46,33.10
2016,08,19,12,47,33.10
2016,08,19,12,48,33.10
2016,08,19,12,49,33.10
2016,08,19,12,50,33.00
2016,08,19,12,51,33.00
2016,08,19,12,52,33.00
2016,08,19,12,53,33.00
2016,08,19,12,54,33.10
2016,08,19,12,55,33.10
2016,08,19,12,56,33.10
2016,08,19,12,57,33.10
2016,08,19,12,58,33.10
2016,08,19,12,59,33.20
2016,08,19,13,00,33.20
2016,08,19,13,01,33.20
2016,08,19,13,02,33.10
2016,08,19,13,03,33.10
2016,08,19,13,04,33.10
2016,08,19,13,05,33.20
2016,08,19,13,06,33.20
2016,08,19,13,07,33.20
2016,08,19,13,08,33.20
2016,08,19,13,09,33.20
2016,08,19,13,10,33.20
2016,08,19,13,11,33.20
2016,08,19,13,12,33.30
2016,08,19,13,13,33.30
2016,08,19,13,14,33.30
2016,08,19,13,15,33.30
2016,08,19,13,16,33.20
2016,08,19,13,17,33.20
2016,08,19,13,18,33.20
2016,08,19,13,19,33.20
2016,08,19,13,20,33.20
2016,08,19,13,21,33.20
2016,08,19,13,22,33.20
2016,08,19,13,23,33.30
2016,08,19,13,24,33.30
2016,08,19,13,25,33.30
2016,08,19,13,26,33.30
2016,08,19,13,27,33.30
2016,08,19,13,28,33.30
2016,08,19,13,29,33.30
2016,08,19,13,30,33.30
2016,08,19,13,31,33.40
2016,08,19,13,32,33.40
2016,08,19,13,33,33.40
2016,08,19,13,34,33.40
2016,08,19,13,35,33.40
2016,08,19,13,36,33.50
2016,08,19,13,37,33.60
2016,08,19,13,38,33.60
2016,08,19,13,39,33.60
2016,08,19,13,40,33.70
2016,08,19,13,41,33.70
2016,08,19,13,42,33.70
2016,08,19,13,43,33.70
2016,08,19,13,44,33.70
2016,08,19,13,45,33.70
2016,08,19,13,46,33.80
2016,08,19,13,47,33.80
2016,08,19,13,48,33.80
2016,08,19,13,49,33.80
2016,08,19,13,50,33.80
2016,08,19,13,51,33.70
2016,08,19,13,52,33.70
2016,08,19,13,53,33.80
2016,08,19,13,54,33.80
2016,08,19,13,55,33.80
2016,08,19,13,56,33.90
2016,08,19,13,57,33.90
2016,08,19,13,58,33.90
2016,08,19,13,59,34.00
2016,08,19,14,00,34.00
2016,08,19,14,01,34.00
2016,08,19,14,02,34.10
2016,08,19,14,03,34.10
2016,08,19,14,04,34.10
2016,08,19,14,05,34.20
2016,08,19,14,06,34.20
2016,08,19,14,07,34.30
2016,08,19,14,08,34.30
2016,08,19,14,09,34.30
2016,08,19,14,10,34.30
2016,08,19,14,11,34.30
2016,08,19,14,12,34.30
2016,08,19,14,13,34.30
2016,08,19,14,14,34.30
2016,08,19,14,15,34.30
2016,08,19,14,16,34.30
2016,08,19,14,17,34.30
2016,08,19,14,18,34.30
2016,08,19,14,19,34.30
2016,08,19,14,20,34.30
2016,08,19,14,21,34.40
2016,08,19,14,22,34.40
2016,08,19,14,23,34.50
2016,08,19,14,24,34.60
2016,08,19,14,25,34.70
2016,08,19,14,26,34.70
2016,08,19,14,27,34.60
2016,08,19,14,28,34.60
2016,08,19,14,29,34.60
2016,08,19,14,30,34.60
2016,08,19,14,31,34.60
2016,08,19,14,32,34.70
2016,08,19,14,33,34.70
2016,08,19,14,34,34.80
2016,08,19,14,35,34.80
2016,08,19,14,36,34.80
2016,08,19,14,37,34.90
2016,08,19,14,38,34.90
2016,08,19,14,39,34.90
2016,08,19,14,40,34.90
2016,08,19,14,41,34.80
2016,08,19,14,42,34.80
2016,08,19,14,43,34.90
2016,08,19,14,44,34.90
2016,08,19,14,45,34.90
2016,08,19,14,46,34.90
2016,08,19,14,47,34.90
2016,08,19,14,48,34.90
2016,08,19,14,49,34.90
2016,08,19,14,50,34.90
2016,08,19,14,51,34.80
2016,08,19,14,52,34.80
2016,08,19,14,53,34.80
2016,08,19,14,54,34.80
2016,08,19,14,55,34.80
2016,08,19,14,56,34.80
2016,08,19,14,57,34.90
2016,08,19,14,58,34.90
2016,08,19,14,59,34.90
2016,08,19,15,00,34.90
2016,08,19,15,01,34.90
2016,08,19,15,02,34.90
2016,08,19,15,03,34.90
2016,08,19,15,04,35.00
2016,08,19,15,05,34.90
2016,08,19,15,06,34.90
2016,08,19,15,07,35.00
2016,08,19,15,08,35.10
2016,08,19,15,09,35.10
2016,08,19,15,10,35.10
2016,08,19,15,11,35.10
2016,08,19,15,12,35.10
2016,08,19,15,13,35.10
2016,08,19,15,14,35.10
2016,08,19,15,15,35.10
2016,08,19,15,16,35.10
2016,08,19,15,17,35.20
2016,08,19,15,18,35.20
2016,08,19,15,19,35.30
2016,08,19,15,20,35.30
2016,08,19,15,21,35.30
2016,08,19,15,22,35.30
2016,08,19,15,23,35.30
2016,08,19,15,24,35.30
2016,08,19,15,25,35.30
2016,08,19,15,26,35.30
2016,08,19,15,27,35.30
2016,08,19,15,28,35.30
2016,08,19,15,29,35.30
2016,08,19,15,30,35.30
2016,08,19,15,31,35.30
2016,08,19,15,32,35.30
2016,08,19,15,33,35.40
2016,08,19,15,34,35.40
2016,08,19,15,35,35.30
2016,08,19,15,36,35.30
2016,08,19,15,37,35.20
2016,08,19,15,38,35.20
2016,08,19,15,39,35.10
2016,08,19,15,40,35.10
2016,08,19,15,41,35.10
2016,08,19,15,42,35.10
2016,08,19,15,43,35.10
2016,08,19,15,44,35.10
2016,08,19,15,45,35.10
2016,08,19,15,46,35.10
2016,08,19,15,47,35.10
2016,08,19,15,48,35.10
2016,08,19,15,49,35.10
2016,08,19,15,50,35.10
2016,08,19,15,51,35.10
2016,08,19,15,52,35.10
2016,08,19,15,53,35.10
2016,08,19,15,54,35.10
2016,08,19,15,55,35.10
2016,08,19,15,56,35.20
2016,08,19,15,57,35.20
2016,08,19,15,58,35.30
2016,08,19,15,59,35.30
2016,08,19,16,00,35.30
2016,08,19,16,01,35.40
2016,08,19,16,02,35.40
2016,08,19,16,03,35.40
2016,08,19,16,04,35.40
2016,08,19,16,05,35.40
2016,08,19,16,06,35.40
2016,08,19,16,07,35.50
2016,08,19,16,08,35.50
2016,08,19,16,09,35.60
2016,08,19,16,10,35.60
2016,08,19,16,11,35.70
2016,08,19,16,12,35.70
2016,08,19,16,13,35.60
2016,08,19,16,14,35.60
2016,08,19,16,15,35.60
2016,08,19,16,16,35.60
2016,08,19,16,17,35.60
2016,08,19,16,18,35.60
2016,08,19,16,19,35.50
2016,08,19,16,20,35.50
2016,08,19,16,21,35.60
2016,08,19,16,22,35.60
2016,08,19,16,23,35.60
2016,08,19,16,24,35.60
2016,08,19,16,25,35.60
2016,08,19,16,26,35.60
2016,08,19,16,27,35.60
2016,08,19,16,28,35.60
2016,08,19,16,29,35.60
2016,08,19,16,30,35.60
2016,08,19,16,31,35.50
2016,08,19,16,32,35.50
2016,08,19,16,33,35.40
2016,08,19,16,34,35.40
2016,08,19,16,35,35.40
2016,08,19,16,36,35.40
2016,08,19,16,37,35.40
2016,08,19,16,38,35.40
2016,08,19,16,39,35.40
2016,08,19,16,40,35.40
2016,08,19,16,41,35.40
2016,08,19,16,42,35.40
2016,08,19,16,43,35.40
2016,08,19,16,44,35.40
2016,08,19,16,45,35.40
2016,08,19,16,46,35.50
2016,08,19,16,47,35.40
2016,08,19,16,48,35.40
2016,08,19,16,49,35.40
2016,08,19,16,50,35.40
2016,08,19,16,51,35.40
2016,08,19,16,52,35.40
2016,08,19,16,53,35.40
2016,08,19,16,54,35.40
2016,08,19,16,55,35.40
2016,08,19,16,56,35.50
2016,08,19,16,57,35.50
2016,08,19,16,58,35.60
2016,08,19,16,59,35.70
2016,08,19,17,00,35.70
2016,08,19,17,01,35.70
2016,08,19,17,02,35.70
2016,08,19,17,03,35.70
2016,08,19,17,04,35.70
2016,08,19,17,05,35.60
2016,08,19,17,06,35.60
2016,08,19,17,07,35.50
2016,08,19,17,08,35.40
2016,08,19,17,09,35.40
2016,08,19,17,10,35.40
2016,08,19,17,11,35.40
2016,08,19,17,12,35.40
2016,08,19,17,13,35.40
2016,08,19,17,14,35.40
2016,08,19,17,15,35.40
2016,08,19,17,16,35.40
2016,08,19,17,17,35.40
2016,08,19,17,18,35.40
2016,08,19,17,19,35.40